This is the latest recevied weather packets stored in our database for station/object W4ZHA. If no packets are shown the sender has not sent any weather packets the latest 10 day(s).
| Time | Temp. | Humidity | Pressure | Rain* | Wind** | Luminosity | Snow |
|---|---|---|---|---|---|---|---|
| 1778016587 | 23.33° C | 53% | 1011.6 hPa | 0 mm | - | 129 W/m² | - |
| 1778016284 | 22.78° C | 53% | 1011.6 hPa | 0 mm | - | 94 W/m² | - |
| 1778015980 | 23.33° C | 49% | 1011.6 hPa | 0 mm | - | 104 W/m² | - |
| 1778015678 | 23.33° C | 48% | 1011.6 hPa | 0 mm | - | 74 W/m² | - |
| 1778015374 | 23.89° C | 47% | 1012 hPa | 0 mm | - | 69 W/m² | - |
| 1778015071 | 23.89° C | 46% | 1012 hPa | 0 mm | - | 70 W/m² | - |
| 1778014768 | 24.44° C | 46% | 1012 hPa | 0 mm | - | 97 W/m² | - |
| 1778014467 | 24.44° C | 46% | 1012 hPa | 0 mm | - | 114 W/m² | - |
| 1778014163 | 24.44° C | 46% | 1012 hPa | 0 mm | - | 116 W/m² | - |
| 1778013861 | 24.44° C | 46% | 1012 hPa | 0 mm | - | 112 W/m² | - |
| 1778013558 | 25° C | 46% | 1012 hPa | 0 mm | - | 129 W/m² | - |
| 1778013254 | 25° C | 45% | 1012 hPa | 0 mm | - | 146 W/m² | - |
| 1778012950 | 25.56° C | 45% | 1012 hPa | 0 mm | - | 193 W/m² | - |
| 1778012646 | 25.56° C | 45% | 1012.3 hPa | 0 mm | - | 196 W/m² | - |
| 1778012343 | 25° C | 45% | 1012.3 hPa | 0 mm | - | 191 W/m² | - |
| 1778012041 | 25° C | 45% | 1012.3 hPa | 0 mm | - | 277 W/m² | - |
| 1778011739 | 25.56° C | 45% | 1012.7 hPa | 0 mm | - | 259 W/m² | - |
| 1778011435 | 25.56° C | 45% | 1012.3 hPa | 0 mm | - | 218 W/m² | - |
| 1778011131 | 26.11° C | 45% | 1012.3 hPa | 0 mm | - | 443 W/m² | - |
| 1778010829 | 26.11° C | 45% | 1012.7 hPa | 0 mm | - | 519 W/m² | - |
| 1778010525 | 26.11° C | 45% | 1012.7 hPa | 0 mm | - | 476 W/m² | - |
| 1778010223 | 25.56° C | 45% | 1012.7 hPa | 0 mm | - | 486 W/m² | - |
| 1778009918 | 25.56° C | 45% | 1012.7 hPa | 0 mm | - | 486 W/m² | - |
| 1778009616 | 26.67° C | 45% | 1013 hPa | 0 mm | - | 492 W/m² | - |
| 1778009313 | 26.11° C | 45% | 1012.7 hPa | 0 mm | - | 385 W/m² | - |
* Rain latest hour (hover to see other rain measurements)
** Current wind speed in m/s (hover to see current wind gust speed)